Home > Weather > Setúbal > Past weeks

Flag for Portugal Past Weather in Setúbal, Portugal — Yesterday and Last 2 Weeks

Now
55 °F

Passing clouds.


Feels Like: 53 °F
Forecast: 60 / 82 °F
Wind: 10 mph from Northwest

Location: Lisbon Portela Airport

Current Time: May 31, 2016 at 5:12:53 AM

Latest Report: May 31, 2016 at 4:30 AM


Visibility: N/A

Pressure: 30.15 "Hg

Humidity: 88%

Dew Point: 52 °F

Location of SetúbalLocation

Past Weather in Setúbal — Graph

°F

Setúbal Temperature Yesterday

Maximum temperature yesterday: 68 °F (at 1:00 PM)
Minimum temperature yesterday: 55 °F (at 1:00 AM)
Average temperature yesterday: 62 °F

High & Low Weather Summary for the Past Weeks

 TemperatureHumidityPressure
High88 °F (May 20, 4:30 PM)100% (May 21, 6:30 AM)30.21 "Hg (May 21, 6:30 AM)
Low50 °F (May 23, 6:00 AM)22% (May 20, 5:00 PM)29.86 "Hg (May 25, 2:30 AM)
Average62 °F76%30.05 "Hg
* Reported May 16 3:00 AM — May 31 3:30 AM, Setúbal, Weather by CustomWeather, © 2016

Note: Actual official high and low records may vary slightly from our data, if they occured in-between our weather recording intervals... More about our weather records

Advertising

Setúbal Weather History for the Previous 24 Hours

Scroll right to see more
 ConditionsComfort  
Time TempWeatherWind HumidityBarometerVisibility
3:30 AM
Tue, May 31
55 °FPassing clouds.3 mph88%30.15 "HgN/A
3:00 AM55 °FPassing clouds.5 mph88%30.15 "HgN/A
2:30 AM57 °FPassing clouds.8 mph82%30.15 "HgN/A
2:00 AM57 °FPassing clouds.7 mph82%30.15 "HgN/A
1:30 AM57 °FPassing clouds.8 mph82%30.15 "HgN/A
1:00 AM57 °FPassing clouds.12 mph88%30.18 "HgN/A
12:30 AM57 °FPassing clouds.12 mph88%30.18 "HgN/A
12:00 AM57 °FPassing clouds.12 mph88%30.18 "HgN/A
11:30 PM
Mon, May 30
59 °FPassing clouds.10 mph82%30.18 "HgN/A
11:00 PM59 °FPassing clouds.13 mph82%30.18 "HgN/A
10:30 PM59 °FClear.12 mph82%30.18 "Hg10 mi
10:00 PM59 °FClear.13 mph82%30.15 "Hg10 mi
9:30 PM59 °FPassing clouds.14 mph77%30.15 "HgN/A
9:00 PM61 °FPassing clouds.12 mph72%30.15 "HgN/A
8:30 PM63 °FPassing clouds.12 mph64%30.15 "HgN/A
8:00 PM63 °FPassing clouds.15 mph64%30.15 "HgN/A
7:30 PM64 °FPassing clouds.15 mph60%30.15 "HgN/A
7:00 PM66 °FPassing clouds.14 mph60%30.12 "HgN/A
6:30 PM66 °FPassing clouds.15 mph56%30.12 "HgN/A
6:00 PM68 °FPassing clouds.13 mph49%30.12 "HgN/A
5:30 PM68 °FPassing clouds.12 mph53%30.12 "HgN/A
5:00 PM68 °FPassing clouds.13 mph46%30.12 "HgN/A
4:30 PM68 °FPassing clouds.12 mph53%30.12 "HgN/A
4:00 PM68 °FPassing clouds.10 mph53%30.12 "HgN/A
3:30 PM68 °FPassing clouds.12 mph53%30.12 "HgN/A
3:00 PM68 °FPassing clouds.12 mph53%30.12 "HgN/A
2:30 PM68 °FPassing clouds.10 mph49%30.15 "HgN/A
2:00 PM68 °FScattered clouds.12 mph53%30.15 "HgN/A
1:30 PM68 °FScattered clouds.9 mph53%30.15 "HgN/A
1:00 PM68 °FScattered clouds.8 mph49%30.15 "HgN/A
12:00 PM66 °FScattered clouds.6 mph56%30.15 "HgN/A
11:30 AM66 °FScattered clouds.9 mph56%30.15 "HgN/A
11:00 AM66 °FScattered clouds.9 mph56%30.15 "HgN/A
10:30 AM64 °FScattered clouds.10 mph64%30.15 "HgN/A
10:00 AM63 °FPassing clouds.10 mph73%30.15 "HgN/A
9:30 AM63 °FScattered clouds.9 mph73%30.15 "HgN/A
9:00 AM61 °FScattered clouds.6 mph83%30.15 "HgN/A
8:30 AM59 °FPassing clouds.5 mph82%30.15 "HgN/A
8:00 AM57 °FPassing clouds.2 mph88%30.15 "HgN/A
7:30 AM57 °FPassing clouds.1 mph88%30.15 "HgN/A
7:00 AM55 °FPassing clouds.3 mph88%30.15 "HgN/A
6:30 AM55 °FPassing clouds.5 mph88%30.15 "HgN/A
6:00 AM55 °FPassing clouds.2 mph88%30.12 "HgN/A
5:30 AM55 °FPassing clouds.1 mph94%30.12 "HgN/A
5:00 AM57 °FPassing clouds.5 mph88%30.12 "HgN/A
Weather by CustomWeather, © 2016

See weather overviewHow to use our weather pages